{"data":{"norad_id":35685,"epoch":"2026-05-24T19:59:28.093056Z","epoch_age_seconds":89188,"freshness":"FRESH","line1":"1 35685U 09041E   26144.83296404  .00001103  00000+0  10998-3 0  9998","line2":"2 35685  98.1141 262.7907 0048332 240.5798 119.0592 14.92978325910930","mean_motion":14.92978325,"eccentricity":0.0048332,"inclination_deg":98.1141,"raan_deg":262.7907,"arg_perigee_deg":240.5798,"mean_anomaly_deg":119.0592,"bstar":0.00010998,"rev_number":91093,"period_min":96.451500727581,"perigee_km":554.98302198808,"apogee_km":622.32681941032,"semimajor_km":6966.7919206992,"source":"CELESTRAK","updated_at":"2026-05-25T13:37:55.160249Z"}}